Location: Beuerbach
(48.1459°N, 10.9174°E)
Time: 20:16:26
(UTC+00:00)

Cosmos 1833 Rocket - Pass Details

Date: 23 May 2024
Orbit: 831 x 840 km, 71.0° (Epoch: 24 June)

Event Time Altitude Azimuth Distance (km) Brightness Sun altitude
Exits shadow 00:07:59 19° 250° (WSW) 1,904 4.2 -20.1°
Maximum altitude 00:11:31 38° 308° (NW) 1,261 3.8 -20.0°
Drops below altitude 10° 00:16:44 10° 16° (NNE) 2,454 6.3 -19.8°
Sets 00:19:22 0° 25° (NNE) 3,392 7.4 -19.6°
